When you browse on this site, cookies collect data to enhance your experience and personalize the content and advertising you see.
Visit our Privacy Policy to learn more. By continuing to use the site, you agree to this use of cookies and data.
  • In Spain
  • List of Countries
  • For 7 days
  • Water Temperature
  • Satellite Maps
  • Weather Map
  • Weather Widgets
  • user-avatar
    Login

    Hourly Weather Maksym

    Today, 23 May, Thursday

    Time Temperature Precipitation Wind Pressure Humidity
    00:00 +16°C° 0 mm 1 mps 746 mmHg 92%
    01:00 +15°C° 0 mm 1 mps 746 mmHg 92%
    02:00 +15°C° 0 mm 1 mps 746 mmHg 93%
    03:00 +15°C° 0 mm 1 mps 746 mmHg 93%
    04:00 +15°C° 0 mm 1 mps 746 mmHg 93%
    05:00 +15°C° 0 mm 1 mps 746 mmHg 93%
    06:00 +18°C° 0 mm 1 mps 746 mmHg 87%
    07:00 +19°C° 0 mm 1 mps 746 mmHg 81%
    08:00 +21°C° 0 mm 1 mps 746 mmHg 75%
    09:00 +22°C° 0 mm 1 mps 746 mmHg 69%
    10:00 +24°C° 0 mm 1 mps 746 mmHg 64%
    11:00 +25°C° 0 mm 1 mps 746 mmHg 58%
    12:00 +26°C° 0 mm 1 mps 746 mmHg 55%
    13:00 +26°C° 0 mm 1 mps 746 mmHg 53%
    14:00 +27°C° 0 mm 1 mps 746 mmHg 51%
    15:00 +27°C° 0.1 mm 1 mps 746 mmHg 52%
    16:00 +26°C° 0.1 mm 1 mps 746 mmHg 53%
    17:00 +26°C° 0.1 mm 1 mps 746 mmHg 54%
    18:00 +24°C° 0.5 mm 1 mps 746 mmHg 61%
    19:00 +22°C° 0.5 mm 1 mps 746 mmHg 68%
    20:00 +21°C° 0.5 mm 1 mps 746 mmHg 76%
    21:00 +20°C° 0.3 mm 1 mps 746 mmHg 79%
    22:00 +19°C° 0.3 mm 1 mps 746 mmHg 81%
    23:00 +17°C° 0.3 mm 0 mps 746 mmHg 84%

    Tomorrow, 24 May, Friday

    Time Temperature Precipitation Wind Pressure Humidity
    00:00 +16°C° 0 mm 0 mps 746 mmHg 84%
    01:00 +16°C° 0 mm 0 mps 746 mmHg 84%
    02:00 +16°C° 0 mm 0 mps 746 mmHg 85%
    03:00 +16°C° 0 mm 0 mps 746 mmHg 85%
    04:00 +16°C° 0 mm 0 mps 746 mmHg 85%
    05:00 +16°C° 0 mm 0 mps 747 mmHg 85%
    06:00 +18°C° 0.1 mm 0 mps 747 mmHg 81%
    07:00 +19°C° 0.1 mm 0 mps 747 mmHg 76%
    08:00 +21°C° 0.1 mm 0 mps 747 mmHg 71%
    09:00 +24°C° 0.2 mm 1 mps 747 mmHg 65%
    10:00 +25°C° 0.2 mm 1 mps 747 mmHg 58%
    11:00 +27°C° 0.2 mm 2 mps 746 mmHg 52%
    12:00 +27°C° 0.1 mm 2 mps 746 mmHg 51%
    13:00 +27°C° 0.1 mm 2 mps 746 mmHg 51%
    14:00 +27°C° 0.1 mm 2 mps 746 mmHg 50%
    15:00 +27°C° 0.4 mm 2 mps 746 mmHg 54%
    16:00 +26°C° 0.4 mm 2 mps 745 mmHg 58%
    17:00 +26°C° 0.4 mm 2 mps 745 mmHg 61%
    18:00 +24°C° 1.6 mm 2 mps 745 mmHg 69%
    19:00 +22°C° 1.6 mm 1 mps 745 mmHg 76%
    20:00 +20°C° 1.6 mm 1 mps 745 mmHg 83%
    21:00 +20°C° 1.2 mm 1 mps 745 mmHg 84%
    22:00 +20°C° 1.2 mm 1 mps 745 mmHg 85%
    23:00 +19°C° 1.2 mm 1 mps 745 mmHg 86%

    Day after tomorrow, 25 May, Saturday

    Time Temperature Precipitation Wind Pressure Humidity
    00:00 +19°C° 0 mm 1 mps 745 mmHg 88%
    01:00 +17°C° 0 mm 2 mps 745 mmHg 90%
    02:00 +17°C° 0 mm 2 mps 745 mmHg 92%
    03:00 +18°C° 0 mm 1 mps 744 mmHg 92%
    04:00 +18°C° 0 mm 1 mps 744 mmHg 92%
    05:00 +18°C° 0 mm 1 mps 744 mmHg 92%
    06:00 +19°C° 0.1 mm 1 mps 744 mmHg 87%
    07:00 +21°C° 0.1 mm 1 mps 744 mmHg 82%
    08:00 +22°C° 0.1 mm 1 mps 744 mmHg 77%
    09:00 +23°C° 1.1 mm 1 mps 744 mmHg 73%
    10:00 +24°C° 1.1 mm 2 mps 744 mmHg 69%
    11:00 +25°C° 1.1 mm 2 mps 744 mmHg 65%
    12:00 +25°C° 0.4 mm 2 mps 744 mmHg 62%
    13:00 +25°C° 0.4 mm 2 mps 743 mmHg 60%
    14:00 +26°C° 0.4 mm 2 mps 743 mmHg 58%
    15:00 +25°C° 1.5 mm 3 mps 743 mmHg 65%
    16:00 +22°C° 1.5 mm 3 mps 743 mmHg 72%
    17:00 +21°C° 1.5 mm 3 mps 743 mmHg 79%
    18:00 +20°C° 0.2 mm 3 mps 743 mmHg 83%
    19:00 +19°C° 0.2 mm 3 mps 744 mmHg 86%
    20:00 +18°C° 0.2 mm 3 mps 744 mmHg 90%
    21:00 +17°C° 0.1 mm 3 mps 744 mmHg 91%
    22:00 +17°C° 0.1 mm 3 mps 744 mmHg 91%
    23:00 +17°C° 0.1 mm 3 mps 744 mmHg 91%

    26 May, Sunday

    Time Temperature Precipitation Wind Pressure Humidity
    00:00 +16°C° 0 mm 3 mps 744 mmHg 91%
    01:00 +14°C° 0 mm 3 mps 745 mmHg 91%
    02:00 +14°C° 0 mm 3 mps 745 mmHg 91%
    03:00 +13°C° 0 mm 3 mps 745 mmHg 92%
    04:00 +13°C° 0 mm 3 mps 745 mmHg 93%
    05:00 +13°C° 0 mm 3 mps 746 mmHg 93%
    06:00 +14°C° 0 mm 3 mps 746 mmHg 88%
    07:00 +17°C° 0 mm 3 mps 746 mmHg 83%
    08:00 +18°C° 0 mm 3 mps 746 mmHg 79%
    09:00 +19°C° 0 mm 3 mps 746 mmHg 71%
    10:00 +21°C° 0 mm 3 mps 746 mmHg 64%
    11:00 +22°C° 0 mm 3 mps 746 mmHg 57%
    12:00 +22°C° 0 mm 4 mps 746 mmHg 56%
    13:00 +22°C° 0 mm 4 mps 746 mmHg 55%
    14:00 +22°C° 0 mm 5 mps 746 mmHg 54%
    15:00 +22°C° 0 mm 4 mps 746 mmHg 55%
    16:00 +22°C° 0 mm 4 mps 745 mmHg 56%
    17:00 +22°C° 0 mm 4 mps 745 mmHg 57%
    18:00 +20°C° 0.1 mm 3 mps 745 mmHg 64%
    19:00 +19°C° 0.1 mm 3 mps 745 mmHg 70%
    20:00 +17°C° 0.1 mm 3 mps 745 mmHg 77%
    21:00 +17°C° 1.4 mm 4 mps 745 mmHg 81%
    22:00 +15°C° 1.4 mm 4 mps 746 mmHg 86%
    23:00 +14°C° 1.4 mm 4 mps 746 mmHg 91%

    27 May, Monday

    Time Temperature Precipitation Wind Pressure Humidity
    00:00 +13°C° 0.6 mm 4 mps 746 mmHg 90%
    01:00 +13°C° 0.6 mm 4 mps 746 mmHg 89%
    02:00 +12°C° 0.6 mm 4 mps 747 mmHg 88%
    03:00 +11°C° 0 mm 4 mps 747 mmHg 89%
    04:00 +10°C° 0 mm 4 mps 748 mmHg 89%
    05:00 +8°C° 0 mm 4 mps 748 mmHg 90%
    06:00 +9°C° 0 mm 5 mps 749 mmHg 84%
    07:00 +10°C° 0 mm 5 mps 749 mmHg 78%
    08:00 +11°C° 0 mm 6 mps 749 mmHg 72%
    09:00 +13°C° 0 mm 5 mps 750 mmHg 68%
    10:00 +15°C° 0 mm 5 mps 750 mmHg 63%
    11:00 +16°C° 0 mm 5 mps 751 mmHg 58%
    12:00 +16°C° 0 mm 5 mps 751 mmHg 58%
    13:00 +18°C° 0 mm 4 mps 751 mmHg 57%
    14:00 +18°C° 0 mm 4 mps 751 mmHg 57%
    15:00 +19°C° 0 mm 4 mps 751 mmHg 57%
    16:00 +19°C° 0 mm 3 mps 751 mmHg 58%
    17:00 +19°C° 0 mm 3 mps 751 mmHg 58%
    18:00 +18°C° 0 mm 3 mps 752 mmHg 64%
    19:00 +16°C° 0 mm 2 mps 752 mmHg 70%
    20:00 +15°C° 0 mm 2 mps 752 mmHg 75%
    21:00 +14°C° 0 mm 2 mps 752 mmHg 78%
    22:00 +13°C° 0 mm 2 mps 752 mmHg 80%
    23:00 +13°C° 0 mm 2 mps 753 mmHg 83%

    28 May, Tuesday

    Time Temperature Precipitation Wind Pressure Humidity
    00:00 +13°C° 0 mm 2 mps 753 mmHg 84%
    01:00 +12°C° 0 mm 2 mps 753 mmHg 86%
    02:00 +12°C° 0 mm 2 mps 753 mmHg 88%
    03:00 +12°C° 0 mm 2 mps 753 mmHg 88%
    04:00 +12°C° 0 mm 2 mps 753 mmHg 88%
    05:00 +12°C° 0 mm 2 mps 753 mmHg 87%
    06:00 +13°C° 0 mm 3 mps 753 mmHg 81%
    07:00 +16°C° 0 mm 3 mps 753 mmHg 76%
    08:00 +18°C° 0 mm 4 mps 753 mmHg 70%
    09:00 +20°C° 0 mm 4 mps 753 mmHg 67%
    10:00 +21°C° 0 mm 5 mps 752 mmHg 65%
    11:00 +22°C° 0 mm 5 mps 752 mmHg 62%
    12:00 +22°C° 0.1 mm 5 mps 752 mmHg 65%
    13:00 +22°C° 0.1 mm 5 mps 752 mmHg 67%
    14:00 +22°C° 0.1 mm 6 mps 751 mmHg 70%
    15:00 +22°C° 0 mm 6 mps 751 mmHg 70%
    16:00 +23°C° 0 mm 6 mps 750 mmHg 70%
    17:00 +23°C° 0 mm 6 mps 750 mmHg 71%
    18:00 +22°C° 0 mm 5 mps 750 mmHg 73%
    19:00 +21°C° 0 mm 5 mps 750 mmHg 76%
    20:00 +21°C° 0 mm 5 mps 749 mmHg 78%
    21:00 +20°C° 0 mm 5 mps 749 mmHg 80%
    22:00 +19°C° 0 mm 5 mps 749 mmHg 81%
    23:00 +19°C° 0 mm 4 mps 749 mmHg 83%
    Show more